Home > Weather > Lexington > Past weeks

Flag for USA Past Weather in Lexington, North Carolina, USA — Yesterday and Last 2 Weeks

Now
88 °F

Broken clouds.


Feels Like: 97 °F
Forecast: 74 / 94 °F
Wind: 3 mph from Northeast

Location: Davidson County Airport

Current Time: Jul 26, 2016 at 6:01:54 PM

Latest Report: Jul 26, 2016 at 5:15 PM


Visibility: 10 mi

Pressure: 29.96 "Hg

Humidity: 62%

Dew Point: 74 °F

Location of LexingtonLocation

Past Weather in Lexington — Graph

°F

Lexington Temperature Yesterday

Maximum temperature yesterday: 95 °F (at 2:35 PM)
Minimum temperature yesterday: 73 °F (at 6:35 AM)
Average temperature yesterday: 84 °F

High & Low Weather Summary for the Past Weeks

 TemperatureHumidityPressure
High97 °F (Jul 26, 2:35 PM)100% (Jul 12, 6:15 AM)30.26 "Hg (Jul 12, 6:15 AM)
Low68 °F (Jul 21, 4:55 AM)38% (Jul 20, 2:55 PM)29.96 "Hg (Jul 15, 4:35 PM)
Average80 °F77%30.09 "Hg
* Reported Jul 11 4:15 PM — Jul 26 4:35 PM, Lexington, Weather by CustomWeather, © 2016

Note: Actual official high and low records may vary slightly from our data, if they occured in-between our weather recording intervals... More about our weather records

Advertising

Lexington Weather History for the Previous 24 Hours

Scroll right to see more
 ConditionsComfort  
Time TempWeatherWind HumidityBarometerVisibility
4:35 PM
Tue, Jul 26
92 °FScattered clouds.No wind56%29.96 "Hg10 mi
4:15 PM91 °FScattered clouds.5 mph56%29.96 "Hg10 mi
3:55 PM96 °FBroken clouds.3 mph44%29.96 "Hg10 mi
3:35 PM92 °FScattered clouds.No wind52%29.97 "Hg10 mi
3:15 PM92 °FScattered clouds.No wind53%29.97 "Hg10 mi
2:55 PM94 °FSunny.No wind49%29.98 "Hg10 mi
2:35 PM97 °FScattered clouds.3 mph44%29.98 "Hg10 mi
2:15 PM96 °FScattered clouds.No wind43%29.99 "Hg10 mi
1:55 PM94 °FScattered clouds.No wind46%29.99 "Hg10 mi
1:35 PM94 °FScattered clouds.No wind46%30.00 "Hg10 mi
1:15 PM94 °FSunny.No wind48%30.01 "Hg10 mi
12:55 PM93 °FSunny.No wind48%30.02 "Hg10 mi
12:15 PM91 °FSunny.No wind54%30.03 "Hg10 mi
11:55 AM91 °FSunny.No wind55%30.03 "Hg10 mi
11:35 AM90 °FSunny.3 mph56%30.03 "Hg10 mi
11:15 AM89 °FSunny.3 mph59%30.04 "Hg10 mi
10:55 AM88 °FSunny.No wind61%30.03 "Hg10 mi
10:35 AM87 °FSunny.3 mph63%30.03 "Hg10 mi
10:15 AM86 °FSunny.3 mph66%30.03 "Hg10 mi
9:55 AM84 °FSunny.No wind68%30.04 "Hg10 mi
9:35 AM83 °FSunny.3 mph70%30.04 "Hg10 mi
9:15 AM82 °FSunny.3 mph75%30.05 "Hg10 mi
8:55 AM81 °FSunny.5 mph76%30.04 "Hg10 mi
8:35 AM80 °FSunny.No wind78%30.04 "Hg10 mi
8:15 AM79 °FSunny.3 mph80%30.04 "Hg10 mi
7:55 AM78 °FSunny.No wind82%30.04 "Hg10 mi
7:35 AM77 °FSunny.No wind84%30.03 "Hg10 mi
7:15 AM76 °FClear.No wind88%30.03 "Hg10 mi
6:55 AM73 °FClear.No wind93%30.03 "Hg10 mi
6:35 AM73 °FPassing clouds.No wind93%30.03 "Hg10 mi
6:15 AM73 °FPassing clouds.No wind93%30.02 "Hg10 mi
5:55 AM73 °FClear.No wind93%30.02 "Hg10 mi
5:35 AM74 °FClear.No wind90%30.02 "Hg10 mi
5:15 AM74 °FClear.No wind90%30.01 "Hg10 mi
4:55 AM75 °FClear.No wind89%30.01 "Hg10 mi
4:35 AM75 °FClear.No wind89%30.00 "Hg10 mi
4:15 AM75 °FClear.No wind89%30.00 "Hg10 mi
3:55 AM76 °FClear.No wind85%30.00 "Hg10 mi
3:35 AM78 °FClear.No wind81%30.00 "Hg10 mi
3:15 AM78 °FClear.No wind82%30.00 "Hg10 mi
2:55 AM77 °FClear.No wind85%30.00 "Hg10 mi
2:35 AM78 °FClear.No wind82%30.01 "Hg10 mi
2:15 AM78 °FClear.No wind81%30.01 "Hg10 mi
1:55 AM79 °FClear.No wind79%30.02 "Hg10 mi
1:35 AM80 °FPassing clouds.3 mph79%30.01 "Hg10 mi
1:10 AM80 °FClear.3 mph79%30.02 "Hg10 mi
12:15 AM81 °FPassing clouds.3 mph77%30.03 "Hg10 mi
11:55 PM
Mon, Jul 25
80 °FPassing clouds.3 mph79%30.03 "Hg10 mi
11:35 PM81 °FPassing clouds.3 mph78%30.02 "Hg10 mi
11:15 PM81 °FPassing clouds.3 mph79%30.02 "Hg10 mi
10:35 PM82 °FClear.3 mph78%30.02 "Hg10 mi
10:15 PM82 °FClear.3 mph77%30.01 "Hg10 mi
9:55 PM82 °FClear.6 mph76%30.01 "Hg10 mi
9:35 PM83 °FClear.3 mph75%30.00 "Hg10 mi
9:15 PM83 °FSunny.5 mph73%30.00 "Hg10 mi
8:55 PM84 °FSunny.5 mph71%30.00 "Hg10 mi
8:35 PM84 °FSunny.5 mph69%29.99 "Hg10 mi
8:15 PM86 °FSunny.5 mph66%29.99 "Hg10 mi
7:55 PM87 °FSunny.7 mph63%29.99 "Hg10 mi
7:35 PM89 °FSunny.5 mph60%29.98 "Hg10 mi
6:55 PM92 °FScattered clouds.3 mph55%29.96 "Hg10 mi
6:35 PM92 °FSunny.No wind53%29.96 "Hg10 mi
Weather by CustomWeather, © 2016

See weather overviewHow to use our weather pages